SWA712 KOKC-KLAS

Flight info

Callsign SWA712
Flight time 2h 9m
Altitude 32000
Route STPHN3 ZEEWE NOSEW KA33W BUKKO J8 GUP HAHAA RKSTR4
Aircraft B738/M-SDE2E3FGHIRWXY/LB1

Departure

Time 2026-04-11 03:50
Airport OKC Will Rogers World Airport (KOKC)

Arrival

Time 2026-04-11 05:59
Airport Harry Reid International Airport (KLAS)
Time Latitude Longitude Altitude Speed Heading
2026-04-11 03:42 35.39459 -97.59700 1296 ft 0 kts 34°
2026-04-11 03:44 35.39448 -97.59709 1296 ft 3 kts 34°
2026-04-11 03:44 35.39428 -97.59726 1296 ft 3 kts 34°
2026-04-11 03:45 35.39408 -97.59742 1296 ft 3 kts 34°
2026-04-11 03:45 35.39387 -97.59756 1296 ft 3 kts
2026-04-11 03:45 35.39367 -97.59743 1296 ft 3 kts 288°
2026-04-11 03:45 35.39366 -97.59726 1296 ft 0 kts 267°
2026-04-11 03:46 35.39366 -97.59729 1296 ft 4 kts 267°
2026-04-11 03:46 35.39367 -97.59839 1294 ft 19 kts 293°
2026-04-11 03:47 35.39424 -97.59973 1295 ft 16 kts 301°
2026-04-11 03:47 35.39418 -97.60064 1292 ft 1 kts 253°
2026-04-11 03:47 35.39440 -97.60121 1290 ft 17 kts 316°
2026-04-11 03:47 35.39558 -97.60255 1290 ft 26 kts 317°
2026-04-11 03:48 35.39687 -97.60391 1287 ft 24 kts 343°
2026-04-11 03:48 35.39876 -97.60402 1288 ft 33 kts
2026-04-11 03:48 35.40113 -97.60399 1293 ft 33 kts
2026-04-11 03:48 35.40331 -97.60400 1296 ft 30 kts 360°
2026-04-11 03:49 35.40516 -97.60401 1296 ft 20 kts 354°
2026-04-11 03:49 35.40580 -97.60519 1297 ft 18 kts 265°
2026-04-11 03:49 35.40507 -97.60574 1296 ft 17 kts 180°
2026-04-11 03:49 35.40091 -97.60572 1293 ft 103 kts 179°
2026-04-11 03:50 35.39143 -97.60492 1352 ft 161 kts 174°
2026-04-11 03:50 35.38025 -97.60694 2242 ft 164 kts 196°
2026-04-11 03:50 35.36954 -97.61422 3061 ft 189 kts 213°
2026-04-11 03:50 35.36030 -97.62800 3383 ft 230 kts 238°
2026-04-11 03:51 35.35423 -97.64668 3910 ft 239 kts 243°
2026-04-11 03:51 35.34810 -97.66583 4497 ft 244 kts 243°
2026-04-11 03:51 35.34259 -97.68573 5072 ft 258 kts 256°
2026-04-11 03:51 35.34490 -97.70818 5515 ft 282 kts 286°
2026-04-11 03:52 35.35207 -97.73111 6371 ft 284 kts 288°
2026-04-11 03:52 35.35903 -97.75330 7306 ft 283 kts 288°
2026-04-11 03:52 35.36584 -97.77602 8121 ft 286 kts 287°
2026-04-11 03:52 35.37247 -97.79912 8947 ft 289 kts 287°
2026-04-11 03:53 35.37895 -97.82249 9797 ft 291 kts 287°
2026-04-11 03:53 35.38540 -97.84636 10441 ft 302 kts 287°
2026-04-11 03:53 35.39216 -97.87183 10627 ft 327 kts 287°
2026-04-11 03:53 35.39937 -97.89933 10882 ft 348 kts 287°
2026-04-11 03:54 35.40684 -97.92796 11436 ft 357 kts 287°
2026-04-11 03:54 35.41442 -97.95717 12142 ft 361 kts 287°
2026-04-11 03:54 35.42192 -97.98617 12845 ft 365 kts 287°
2026-04-11 03:54 35.42900 -98.01359 13469 ft 370 kts 288°
2026-04-11 03:55 35.43678 -98.04380 14152 ft 374 kts 288°
2026-04-11 03:55 35.44463 -98.07430 14821 ft 376 kts 288°
2026-04-11 03:55 35.45247 -98.10484 15568 ft 376 kts 287°
2026-04-11 03:55 35.46034 -98.13552 16266 ft 378 kts 287°
2026-04-11 03:56 35.46825 -98.16641 16918 ft 381 kts 287°
2026-04-11 03:56 35.47624 -98.19761 17553 ft 384 kts 287°
2026-04-11 03:56 35.48294 -98.22885 18251 ft 385 kts 279°
2026-04-11 03:56 35.48631 -98.26144 18876 ft 386 kts 276°
2026-04-11 03:57 35.48898 -98.29424 19520 ft 385 kts 275°
2026-04-11 03:57 35.49157 -98.32704 20096 ft 388 kts 275°
2026-04-11 03:57 35.49424 -98.36013 20594 ft 392 kts 275°
2026-04-11 03:57 35.49702 -98.39338 21177 ft 393 kts 276°
2026-04-11 03:58 35.49990 -98.42684 21715 ft 396 kts 276°
2026-04-11 03:58 35.50284 -98.46056 22304 ft 398 kts 276°
2026-04-11 03:58 35.50581 -98.49440 22848 ft 400 kts 276°
2026-04-11 03:58 35.50876 -98.52796 23384 ft 402 kts 276°
2026-04-11 03:59 35.51175 -98.56210 23896 ft 404 kts 276°
2026-04-11 03:59 35.51475 -98.59646 24313 ft 406 kts 276°
2026-04-11 03:59 35.51775 -98.63100 24726 ft 408 kts 276°
2026-04-11 03:59 35.52075 -98.66568 25141 ft 410 kts 276°
2026-04-11 04:00 35.52376 -98.70049 25547 ft 412 kts 276°
2026-04-11 04:00 35.52679 -98.73567 25950 ft 414 kts 275°
2026-04-11 04:00 35.52981 -98.77087 26335 ft 416 kts 275°
2026-04-11 04:00 35.53279 -98.80583 26699 ft 418 kts 275°
2026-04-11 04:01 35.53581 -98.84135 27119 ft 419 kts 275°
2026-04-11 04:01 35.53884 -98.87695 27658 ft 417 kts 275°
2026-04-11 04:01 35.54182 -98.91214 28257 ft 413 kts 275°
2026-04-11 04:01 35.54477 -98.94714 28782 ft 411 kts 275°
2026-04-11 04:02 35.54770 -98.98205 29258 ft 411 kts 275°
2026-04-11 04:02 35.55052 -99.01571 29734 ft 410 kts 275°
2026-04-11 04:02 35.55342 -99.05047 30269 ft 408 kts 275°
2026-04-11 04:02 35.55630 -99.08505 30733 ft 406 kts 275°
2026-04-11 04:03 35.55915 -99.11937 31213 ft 402 kts 275°
2026-04-11 04:03 35.56183 -99.15293 31681 ft 399 kts 273°
2026-04-11 04:03 35.56254 -99.18693 32086 ft 398 kts 269°
2026-04-11 04:03 35.56207 -99.22099 32159 ft 402 kts 268°
2026-04-11 04:04 35.56034 -99.29063 32193 ft 413 kts 268°
2026-04-11 04:04 35.55867 -99.36215 32200 ft 425 kts 268°
2026-04-11 04:05 35.55722 -99.43522 32229 ft 436 kts 268°
2026-04-11 04:05 35.55581 -99.51041 32219 ft 444 kts 268°
2026-04-11 04:06 35.55438 -99.58656 32192 ft 447 kts 268°
2026-04-11 04:06 35.55289 -99.66286 32178 ft 447 kts 268°
2026-04-11 04:07 35.55134 -99.73919 32160 ft 447 kts 268°
2026-04-11 04:07 35.54975 -99.81557 32145 ft 447 kts 268°
2026-04-11 04:08 35.54812 -99.89111 32142 ft 446 kts 268°
2026-04-11 04:08 35.54643 -99.96720 32144 ft 445 kts 268°
2026-04-11 04:09 35.54474 -100.04163 32136 ft 445 kts 268°
2026-04-11 04:09 35.54296 -100.11750 32136 ft 445 kts 268°
2026-04-11 04:10 35.54115 -100.19292 32141 ft 444 kts 268°
2026-04-11 04:10 35.53928 -100.26872 32139 ft 444 kts 268°
2026-04-11 04:11 35.53736 -100.34444 32136 ft 444 kts 268°
2026-04-11 04:11 35.53540 -100.42005 32136 ft 443 kts 268°
2026-04-11 04:12 35.53341 -100.49517 32135 ft 443 kts 268°
2026-04-11 04:12 35.53136 -100.57075 32135 ft 443 kts 268°
2026-04-11 04:13 35.52927 -100.64585 32154 ft 437 kts 267°
2026-04-11 04:13 35.52716 -100.72009 32175 ft 434 kts 267°
2026-04-11 04:14 35.52503 -100.79352 32201 ft 433 kts 267°
2026-04-11 04:14 35.52285 -100.86732 32221 ft 433 kts 267°
2026-04-11 04:15 35.51949 -100.97835 32240 ft 435 kts 267°
2026-04-11 04:16 35.51837 -101.05122 32234 ft 436 kts 269°
2026-04-11 04:16 35.51911 -101.12531 32219 ft 437 kts 270°
2026-04-11 04:17 35.51988 -101.19996 32200 ft 438 kts 270°
2026-04-11 04:17 35.52036 -101.27483 32196 ft 438 kts 269°
2026-04-11 04:18 35.52065 -101.34979 32198 ft 440 kts 269°
2026-04-11 04:18 35.52085 -101.42447 32208 ft 441 kts 269°
2026-04-11 04:19 35.52101 -101.49992 32196 ft 443 kts 269°
2026-04-11 04:19 35.52113 -101.57548 32181 ft 443 kts 269°
2026-04-11 04:20 35.52120 -101.65118 32156 ft 443 kts 269°
2026-04-11 04:20 35.52123 -101.72640 32143 ft 444 kts 269°
2026-04-11 04:21 35.52121 -101.80213 32136 ft 444 kts 269°
2026-04-11 04:21 35.52114 -101.87768 32126 ft 444 kts 269°
2026-04-11 04:22 35.52102 -101.95341 32120 ft 444 kts 269°
2026-04-11 04:22 35.52087 -102.02780 32122 ft 443 kts 269°
2026-04-11 04:23 35.52066 -102.10310 32115 ft 444 kts 268°
2026-04-11 04:23 35.52040 -102.17888 32106 ft 445 kts 268°
2026-04-11 04:24 35.52010 -102.25482 32106 ft 445 kts 268°
2026-04-11 04:24 35.51974 -102.33075 32108 ft 445 kts 268°
2026-04-11 04:25 35.51934 -102.40670 32101 ft 445 kts 268°
2026-04-11 04:25 35.51890 -102.48225 32103 ft 447 kts 268°
2026-04-11 04:26 35.51840 -102.55867 32103 ft 448 kts 268°
2026-04-11 04:26 35.51785 -102.63516 32100 ft 449 kts 268°
2026-04-11 04:27 35.51726 -102.71192 32100 ft 450 kts 268°
2026-04-11 04:27 35.51662 -102.78817 32094 ft 450 kts 267°
2026-04-11 04:28 35.51593 -102.86488 32102 ft 450 kts 267°
2026-04-11 04:28 35.51518 -102.94169 32097 ft 450 kts 267°
2026-04-11 04:29 35.51440 -103.01737 32095 ft 450 kts 267°
2026-04-11 04:29 35.51357 -103.09362 32098 ft 450 kts 267°
2026-04-11 04:30 35.51269 -103.17040 32111 ft 449 kts 266°
2026-04-11 04:30 35.51175 -103.24692 32098 ft 448 kts 266°
2026-04-11 04:31 35.51077 -103.32331 32101 ft 447 kts 266°
2026-04-11 04:31 35.50992 -103.38674 32100 ft 447 kts 266°
2026-04-11 04:32 35.50867 -103.47540 32112 ft 447 kts 266°
2026-04-11 04:32 35.50756 -103.55156 32111 ft 447 kts 265°
2026-04-11 04:33 35.50658 -103.61490 32108 ft 446 kts 265°
2026-04-11 04:33 35.50538 -103.69107 32099 ft 446 kts 265°
2026-04-11 04:34 35.50412 -103.76716 32088 ft 446 kts 265°
2026-04-11 04:34 35.50282 -103.84324 32074 ft 446 kts 265°
2026-04-11 04:35 35.50148 -103.91943 32073 ft 446 kts 265°
2026-04-11 04:35 35.50010 -103.99486 32073 ft 445 kts 265°
2026-04-11 04:36 35.50046 -104.06977 32064 ft 446 kts 268°
2026-04-11 04:36 35.50272 -104.14583 32060 ft 446 kts 269°
2026-04-11 04:37 35.50487 -104.22139 32066 ft 446 kts 268°
2026-04-11 04:37 35.50669 -104.29740 32053 ft 445 kts 268°
2026-04-11 04:38 35.50831 -104.37330 32054 ft 445 kts 268°
2026-04-11 04:38 35.50984 -104.44926 32048 ft 445 kts 268°
2026-04-11 04:39 35.51133 -104.52521 32048 ft 445 kts 268°
2026-04-11 04:39 35.51277 -104.60114 32050 ft 445 kts 268°
2026-04-11 04:40 35.51417 -104.67652 32066 ft 445 kts 268°
2026-04-11 04:40 35.51552 -104.75255 32057 ft 445 kts 268°
2026-04-11 04:41 35.51683 -104.82850 32056 ft 445 kts 268°
2026-04-11 04:41 35.51810 -104.90443 32062 ft 445 kts 268°
2026-04-11 04:42 35.51930 -104.97974 32057 ft 445 kts 267°
2026-04-11 04:42 35.51987 -105.01644 32228 ft 445 kts 267°
2026-04-11 04:42 35.52044 -105.05446 32241 ft 445 kts 267°
2026-04-11 04:43 35.52156 -105.13048 32263 ft 446 kts 267°
2026-04-11 04:43 35.52264 -105.20657 32245 ft 446 kts 267°
2026-04-11 04:44 35.52366 -105.28210 32235 ft 445 kts 267°
2026-04-11 04:44 35.52463 -105.35805 32191 ft 445 kts 266°
2026-04-11 04:45 35.52556 -105.43400 32149 ft 445 kts 266°
2026-04-11 04:45 35.52644 -105.51000 32114 ft 445 kts 266°
2026-04-11 04:46 35.52727 -105.58591 32083 ft 445 kts 266°
2026-04-11 04:46 35.52806 -105.66139 32109 ft 445 kts 265°
2026-04-11 04:47 35.52880 -105.73722 32093 ft 443 kts 265°
2026-04-11 04:47 35.52948 -105.81281 32071 ft 443 kts 265°
2026-04-11 04:48 35.53012 -105.88843 32072 ft 442 kts 265°
2026-04-11 04:48 35.53072 -105.96396 32229 ft 442 kts 265°
2026-04-11 04:49 35.53125 -106.03764 32269 ft 442 kts 265°
2026-04-11 04:49 35.53176 -106.11286 32266 ft 440 kts 265°
2026-04-11 04:50 35.53221 -106.18795 32243 ft 439 kts 265°
2026-04-11 04:50 35.53260 -106.26232 32200 ft 439 kts 265°
2026-04-11 04:51 35.53296 -106.33717 32157 ft 438 kts 265°
2026-04-11 04:51 35.53327 -106.41203 32113 ft 438 kts 264°
2026-04-11 04:52 35.53353 -106.48680 32055 ft 438 kts 264°
2026-04-11 04:52 35.53374 -106.56162 32038 ft 438 kts 264°
2026-04-11 04:53 35.53391 -106.63595 32044 ft 438 kts 264°
2026-04-11 04:53 35.53404 -106.71087 32044 ft 439 kts 264°
2026-04-11 04:54 35.53412 -106.78581 32044 ft 439 kts 264°
2026-04-11 04:54 35.53415 -106.86067 32030 ft 439 kts 264°
2026-04-11 04:55 35.53414 -106.93563 32048 ft 439 kts 264°
2026-04-11 04:55 35.53409 -107.00854 32055 ft 438 kts 264°
2026-04-11 04:56 35.53399 -107.08308 32049 ft 437 kts 264°
2026-04-11 04:56 35.53383 -107.15777 32053 ft 438 kts 264°
2026-04-11 04:57 35.53363 -107.23259 32032 ft 438 kts 264°
2026-04-11 04:57 35.53340 -107.30689 32045 ft 438 kts 264°
2026-04-11 04:58 35.53311 -107.38179 32017 ft 439 kts 263°
2026-04-11 04:58 35.53275 -107.45690 32019 ft 441 kts 264°
2026-04-11 04:59 35.53237 -107.53240 32016 ft 443 kts 264°
2026-04-11 04:59 35.53195 -107.60798 32003 ft 444 kts 264°
2026-04-11 05:00 35.53147 -107.68394 31999 ft 445 kts 264°
2026-04-11 05:00 35.53095 -107.75939 32014 ft 445 kts 264°
2026-04-11 05:01 35.53038 -107.83536 31997 ft 445 kts 264°
2026-04-11 05:01 35.52976 -107.91122 31979 ft 444 kts 264°
2026-04-11 05:02 35.52910 -107.98701 31989 ft 444 kts 263°
2026-04-11 05:02 35.52622 -108.06088 31981 ft 441 kts 260°
2026-04-11 05:03 35.52149 -108.13537 31969 ft 441 kts 260°
2026-04-11 05:03 35.51675 -108.21032 31964 ft 440 kts 260°
2026-04-11 05:04 35.51223 -108.28522 31963 ft 440 kts 260°
2026-04-11 05:04 35.50777 -108.36012 31973 ft 440 kts 260°
2026-04-11 05:05 35.50100 -108.47257 31960 ft 441 kts 261°
2026-04-11 05:05 35.49645 -108.54708 31945 ft 441 kts 261°
2026-04-11 05:06 35.49182 -108.62210 31934 ft 441 kts 260°
2026-04-11 05:06 35.48714 -108.69708 31934 ft 441 kts 260°
2026-04-11 05:07 35.48243 -108.77194 32195 ft 440 kts 260°
2026-04-11 05:07 35.47770 -108.84643 32201 ft 440 kts 260°
2026-04-11 05:08 35.47539 -108.92164 32183 ft 443 kts 264°
2026-04-11 05:08 35.47601 -108.99737 32117 ft 444 kts 265°
2026-04-11 05:09 35.47674 -109.07192 32111 ft 444 kts 265°
2026-04-11 05:09 35.47720 -109.14718 32126 ft 444 kts 264°
2026-04-11 05:10 35.47747 -109.22296 32099 ft 444 kts 264°
2026-04-11 05:10 35.47765 -109.29871 32059 ft 444 kts 264°
2026-04-11 05:11 35.47777 -109.37448 32019 ft 445 kts 264°
2026-04-11 05:11 35.47786 -109.44980 31969 ft 445 kts 264°
2026-04-11 05:12 35.47790 -109.52563 31969 ft 444 kts 264°
2026-04-11 05:12 35.47790 -109.60144 31964 ft 444 kts 264°
2026-04-11 05:13 35.47785 -109.67722 31959 ft 444 kts 264°
2026-04-11 05:13 35.47775 -109.75296 31965 ft 444 kts 264°
2026-04-11 05:14 35.47760 -109.82812 31968 ft 444 kts 264°
2026-04-11 05:14 35.47741 -109.90386 31962 ft 444 kts 264°
2026-04-11 05:15 35.47717 -109.97955 31951 ft 443 kts 264°
2026-04-11 05:15 35.47689 -110.05381 31959 ft 443 kts 264°
2026-04-11 05:16 35.47656 -110.12890 31955 ft 443 kts 264°
2026-04-11 05:16 35.47617 -110.20459 31960 ft 444 kts 264°
2026-04-11 05:17 35.47574 -110.28035 31952 ft 444 kts 264°
2026-04-11 05:17 35.47527 -110.35611 31965 ft 444 kts 264°
2026-04-11 05:18 35.47475 -110.43146 31955 ft 444 kts 264°
2026-04-11 05:18 35.47418 -110.50728 31962 ft 445 kts 264°
2026-04-11 05:19 35.47356 -110.58313 31952 ft 445 kts 264°
2026-04-11 05:19 35.47289 -110.65892 31941 ft 444 kts 264°
2026-04-11 05:20 35.47219 -110.73424 31953 ft 444 kts 264°
2026-04-11 05:20 35.47143 -110.80988 31969 ft 444 kts 264°
2026-04-11 05:21 35.47062 -110.88556 31949 ft 443 kts 264°
2026-04-11 05:21 35.46977 -110.96109 31938 ft 443 kts 264°
2026-04-11 05:22 35.46889 -111.03536 31948 ft 442 kts 263°
2026-04-11 05:22 35.46794 -111.11081 31942 ft 442 kts 263°
2026-04-11 05:23 35.46696 -111.18578 31958 ft 443 kts 264°
2026-04-11 05:23 35.46592 -111.26130 31957 ft 443 kts 264°
2026-04-11 05:24 35.46483 -111.33693 31971 ft 444 kts 264°
2026-04-11 05:24 35.46370 -111.41267 31984 ft 444 kts 264°
2026-04-11 05:25 35.46252 -111.48792 31968 ft 444 kts 263°
2026-04-11 05:25 35.46130 -111.56360 31991 ft 444 kts 263°
2026-04-11 05:26 35.46002 -111.63934 31992 ft 444 kts 263°
2026-04-11 05:26 35.45870 -111.71501 31987 ft 444 kts 263°
2026-04-11 05:27 35.45734 -111.79022 31996 ft 444 kts 263°
2026-04-11 05:27 35.45615 -111.86596 32035 ft 447 kts 266°
2026-04-11 05:28 35.46397 -111.94242 32063 ft 455 kts 274°
2026-04-11 05:28 35.47476 -112.01774 32091 ft 456 kts 274°
2026-04-11 05:29 35.48519 -112.09450 32094 ft 456 kts 273°
2026-04-11 05:29 35.49495 -112.17135 32100 ft 456 kts 273°
2026-04-11 05:30 35.50440 -112.24776 32084 ft 456 kts 272°
2026-04-11 05:30 35.51385 -112.32467 32068 ft 456 kts 272°
2026-04-11 05:31 35.52328 -112.40161 32028 ft 456 kts 272°
2026-04-11 05:31 35.53268 -112.47863 32008 ft 456 kts 272°
2026-04-11 05:32 35.54196 -112.55504 31966 ft 455 kts 272°
2026-04-11 05:32 35.55123 -112.63186 31949 ft 455 kts 272°
2026-04-11 05:33 35.56045 -112.70862 31946 ft 454 kts 272°
2026-04-11 05:33 35.56960 -112.78528 31961 ft 453 kts 272°
2026-04-11 05:34 35.57871 -112.86197 31931 ft 453 kts 272°
2026-04-11 05:34 35.58769 -112.93806 31931 ft 453 kts 272°
2026-04-11 05:35 35.59654 -113.01353 31922 ft 453 kts 272°
2026-04-11 05:35 35.60546 -113.09005 31918 ft 453 kts 272°
2026-04-11 05:36 35.60993 -113.12857 31416 ft 456 kts 272°
2026-04-11 05:36 35.61437 -113.16677 30585 ft 448 kts 272°
2026-04-11 05:36 35.61874 -113.20429 29693 ft 441 kts 272°
2026-04-11 05:36 35.62304 -113.24155 28364 ft 441 kts 272°
2026-04-11 05:37 35.62726 -113.27834 27190 ft 439 kts 272°
2026-04-11 05:37 35.63149 -113.31532 26040 ft 436 kts 273°
2026-04-11 05:37 35.63569 -113.35213 24928 ft 434 kts 273°
2026-04-11 05:37 35.63985 -113.38868 23996 ft 428 kts 273°
2026-04-11 05:38 35.64392 -113.42414 23851 ft 412 kts 273°
2026-04-11 05:38 35.64785 -113.45865 23602 ft 402 kts 273°
2026-04-11 05:38 35.65164 -113.49220 23347 ft 392 kts 273°
2026-04-11 05:38 35.65602 -113.52506 22997 ft 386 kts 275°
2026-04-11 05:39 35.66123 -113.55714 22630 ft 380 kts 276°
2026-04-11 05:39 35.66664 -113.58870 22257 ft 375 kts 277°
2026-04-11 05:39 35.67184 -113.61888 21894 ft 370 kts 276°
2026-04-11 05:39 35.67716 -113.65018 21509 ft 365 kts 276°
2026-04-11 05:40 35.68226 -113.68007 21496 ft 350 kts 276°
2026-04-11 05:40 35.68706 -113.70888 21402 ft 338 kts 276°
2026-04-11 05:40 35.69160 -113.73658 21203 ft 323 kts 275°
2026-04-11 05:40 35.69595 -113.76348 20724 ft 319 kts 275°
2026-04-11 05:41 35.70026 -113.79040 20219 ft 323 kts 275°
2026-04-11 05:41 35.70459 -113.81741 19918 ft 320 kts 275°
2026-04-11 05:41 35.70889 -113.84404 19641 ft 316 kts 275°
2026-04-11 05:41 35.71314 -113.87034 19271 ft 311 kts 275°
2026-04-11 05:42 35.71735 -113.89643 18727 ft 311 kts 275°
2026-04-11 05:42 35.72155 -113.92254 18243 ft 310 kts 275°
2026-04-11 05:42 35.72568 -113.94814 17751 ft 308 kts 275°
2026-04-11 05:42 35.72982 -113.97384 17226 ft 306 kts 275°
2026-04-11 05:43 35.73392 -113.99930 16829 ft 300 kts 275°
2026-04-11 05:43 35.73779 -114.02327 16570 ft 290 kts 275°
2026-04-11 05:43 35.74165 -114.04728 16275 ft 283 kts 274°
2026-04-11 05:43 35.74541 -114.07079 16020 ft 278 kts 273°
2026-04-11 05:44 35.74913 -114.09411 15736 ft 276 kts 274°
2026-04-11 05:44 35.75283 -114.11745 15467 ft 282 kts 274°
2026-04-11 05:44 35.75665 -114.14183 15180 ft 297 kts 274°
2026-04-11 05:44 35.76316 -114.16654 14813 ft 310 kts 290°
2026-04-11 05:45 35.77340 -114.18917 14523 ft 303 kts 293°
2026-04-11 05:45 35.78375 -114.21143 14208 ft 296 kts 293°
2026-04-11 05:45 35.79373 -114.23321 13917 ft 289 kts 292°
2026-04-11 05:45 35.80344 -114.25478 13628 ft 286 kts 292°
2026-04-11 05:46 35.81293 -114.27622 13302 ft 285 kts 291°
2026-04-11 05:46 35.82246 -114.29784 13018 ft 292 kts 291°
2026-04-11 05:46 35.83232 -114.32024 12767 ft 300 kts 292°
2026-04-11 05:46 35.84256 -114.34230 12386 ft 301 kts 298°
2026-04-11 05:47 35.85493 -114.36285 12077 ft 296 kts 302°
2026-04-11 05:47 35.86762 -114.38240 11776 ft 288 kts 302°
2026-04-11 05:47 35.88002 -114.40149 11503 ft 283 kts 302°
2026-04-11 05:47 35.89219 -114.42051 11228 ft 282 kts 302°
2026-04-11 05:48 35.90433 -114.43960 10949 ft 285 kts 302°
2026-04-11 05:48 35.91673 -114.45944 10705 ft 299 kts 301°
2026-04-11 05:48 35.92941 -114.47983 10394 ft 298 kts 302°
2026-04-11 05:48 35.94192 -114.49986 10096 ft 291 kts 302°
2026-04-11 05:49 35.95402 -114.51920 9944 ft 278 kts 302°
2026-04-11 05:49 35.96544 -114.53760 9760 ft 273 kts 301°
2026-04-11 05:49 35.97705 -114.55651 9503 ft 280 kts 301°
2026-04-11 05:49 35.98897 -114.57594 9221 ft 287 kts 302°
2026-04-11 05:50 36.00106 -114.59561 8940 ft 289 kts 302°
2026-04-11 05:50 36.01363 -114.61508 8650 ft 292 kts 303°
2026-04-11 05:50 36.02583 -114.63495 8473 ft 288 kts 301°
2026-04-11 05:50 36.03769 -114.65469 8326 ft 283 kts 300°
2026-04-11 05:51 36.04812 -114.67477 8219 ft 274 kts 295°
2026-04-11 05:51 36.05775 -114.69482 8088 ft 267 kts 295°
2026-04-11 05:51 36.06699 -114.71397 8008 ft 259 kts 294°
2026-04-11 05:51 36.07365 -114.73402 7791 ft 249 kts 275°
2026-04-11 05:52 36.07502 -114.75484 7570 ft 238 kts 263°
2026-04-11 05:52 36.07456 -114.77494 7323 ft 231 kts 263°
2026-04-11 05:52 36.07434 -114.79448 7048 ft 223 kts 264°
2026-04-11 05:52 36.07430 -114.81314 6781 ft 212 kts 264°
2026-04-11 05:53 36.07427 -114.83076 6521 ft 196 kts 264°
2026-04-11 05:53 36.07422 -114.84690 6278 ft 181 kts 264°
2026-04-11 05:53 36.07414 -114.86222 6072 ft 177 kts 264°
2026-04-11 05:53 36.07409 -114.87743 5936 ft 176 kts 265°
2026-04-11 05:54 36.07407 -114.89224 5735 ft 165 kts 264°
2026-04-11 05:54 36.07403 -114.90618 5496 ft 157 kts 264°
2026-04-11 05:54 36.07399 -114.91946 5286 ft 156 kts 264°
2026-04-11 05:54 36.07396 -114.93265 5085 ft 152 kts 264°
2026-04-11 05:55 36.07393 -114.94560 4896 ft 149 kts 265°
2026-04-11 05:55 36.07391 -114.95817 4728 ft 145 kts 265°
2026-04-11 05:55 36.07387 -114.97070 4525 ft 146 kts 266°
2026-04-11 05:55 36.07385 -114.98331 4321 ft 146 kts 265°
2026-04-11 05:56 36.07382 -114.99605 4132 ft 150 kts 266°
2026-04-11 05:56 36.07381 -115.00821 3947 ft 145 kts 265°
2026-04-11 05:56 36.07379 -115.02045 3758 ft 143 kts 265°
2026-04-11 05:56 36.07377 -115.03258 3579 ft 142 kts 265°
2026-04-11 05:57 36.07375 -115.04481 3396 ft 143 kts 267°
2026-04-11 05:57 36.07373 -115.05695 3206 ft 142 kts 266°
2026-04-11 05:57 36.07373 -115.06918 3035 ft 145 kts 266°
2026-04-11 05:57 36.07369 -115.08174 2798 ft 144 kts 268°
2026-04-11 05:58 36.07368 -115.09405 2634 ft 143 kts 268°
2026-04-11 05:58 36.07378 -115.10626 2418 ft 141 kts 262°
2026-04-11 05:58 36.07370 -115.11812 2238 ft 139 kts 264°
2026-04-11 05:58 36.07369 -115.12986 2079 ft 129 kts 263°
2026-04-11 05:59 36.07365 -115.13954 2098 ft 95 kts 271°
2026-04-11 05:59 36.07364 -115.14578 2119 ft 64 kts 269°
2026-04-11 05:59 36.07418 -115.14928 2127 ft 34 kts 294°
2026-04-11 05:59 36.07495 -115.15087 2127 ft 13 kts 312°
2026-04-11 06:00 36.07547 -115.15140 2129 ft 10 kts 329°
2026-04-11 06:00 36.07651 -115.15199 2130 ft 21 kts 335°
2026-04-11 06:00 36.07749 -115.15255 2134 ft 3 kts 335°
2026-04-11 06:00 36.07769 -115.15262 2135 ft 3 kts 357°
2026-04-11 06:01 36.07786 -115.15257 2135 ft 6 kts 24°
2026-04-11 06:01 36.07848 -115.15205 2132 ft 13 kts 21°
2026-04-11 06:01 36.07899 -115.15193 2131 ft 2 kts 60°
2026-04-11 06:01 36.07881 -115.15118 2128 ft 14 kts 103°
2026-04-11 06:02 36.07872 -115.14993 2127 ft 15 kts 95°
2026-04-11 06:02 36.07863 -115.14856 2119 ft 16 kts 89°
2026-04-11 06:02 36.07877 -115.14744 2113 ft 8 kts 38°
2026-04-11 06:02 36.07936 -115.14750 2112 ft 8 kts 334°
2026-04-11 06:03 36.07972 -115.14733 2112 ft 6 kts 52°
2026-04-11 06:03 36.07986 -115.14709 2114 ft 0 kts 54°